Regional Weather Roundup
Issued by NWS

Home | Current Version | Previous Version | Graphics & Text | Print | Product List | Glossary On
Versions: 1 2 3 4 5 6 7 8 9 10 11 12 13 14 15 16 17 18 19 20 21 22 23 24 25 26 27 28 29 30 31 32 33 34 35 36 37 38 39 40 41 42 43 44 45 46 47 48 49 50
000
ASUS43 KBIS 190010
RWRND

NORTH DAKOTA REGIONAL WEATHER ROUNDUP
NATIONAL WEATHER SERVICE BISMARCK ND
700 PM CDT SAT APR 18 2015

NOTE: "FAIR" INDICATES FEW OR NO CLOUDS BELOW 12,000 FEET WITH NO
SIGNIFICANT WEATHER AND/OR OBSTRUCTIONS TO VISIBILITY.


NDZ001>003-009>011-017-190100-
NORTHWEST NORTH DAKOTA

CITY           SKY/WX    TMP DP  RH WIND       PRES   REMARKS
WILLISTON      CLOUDY    56  28  34 NW23G32   29.96R
6HR MIN TEMP:  56; 6HR MAX TEMP:  73; 6HR PCP:  0.02;

MINOT          LGT RAIN  58  38  47 NW24G31   29.87R
MINOT AFB      CLOUDY    58  40  52 NW20      29.87R
$$

NDZ018>021-031>035-040>046-190100-
SOUTHWEST NORTH DAKOTA

CITY           SKY/WX    TMP DP  RH WIND       PRES   REMARKS
BISMARCK       CLOUDY    54  40  59 S8        29.92S
6HR MIN TEMP:  54; 6HR MAX TEMP:  63;

DICKINSON      RAIN      51  47  86 NW8       29.92R FOG
GARRISON         N/A     56  45  66 W8        29.90R
6HR MIN TEMP:  56; 6HR MAX TEMP:  74;

HETTINGER ARPT CLOUDY    50  43  77 E5        29.91F
$$

NDZ004>008-012>016-024-026-027-054-190100-
NORTHEAST NORTH DAKOTA

CITY           SKY/WX    TMP DP  RH WIND       PRES   REMARKS
GRAND FORKS    CLOUDY    67  29  24 S3        29.89F
GRND FRKS AFB  MOSUNNY   67  28  23 S5        29.89F
DEVILS LAKE    PTSUNNY   64  30  27 S12       29.88F
$$

NDZ022-023-025-028>030-036>039-047>053-190100-
SOUTHEAST NORTH DAKOTA

CITY           SKY/WX    TMP DP  RH WIND       PRES   REMARKS
FARGO          CLOUDY    71  28  20 SE13      29.87F
6HR MIN TEMP:  67; 6HR MAX TEMP:  74;

JAMESTOWN      CLOUDY    65  28  24 S14G21    29.88F
$$



USA.gov is the U.S. government's official web portal to all federal, state and local government web resources and services.